www.pogodaiklimat.ru

Погода и климат >> Архив погоды >> Норвегия >> Кьевик


ПОГОДА в Кьевике

  • Прогноз погоды в Кьевике
  • Монитор погоды в Кьевике

АРХИВ ПОГОДЫ в Кьевике

Время (UTC), дата Ветер
(напр.,м/с)
 
Видим.   Явления Облачность Т
(С)
Тd
(С)
f
(%)
Тe
(С)
Тes
(С)
Комфортность P
(гПа)
Po
(гПа)
Тmin
(С)
Tmax
(С)
R
(мм)
R24
(мм)
S
(см)
13 13.09 З 7 н/о н/о +16.4 +4.7 46 +15 +15 1024.9 1022.8
14 13.09 З 5 н/о н/о +16.7 +4.5 44 +16 +16 1025.0 1022.9
15 13.09 З 6 н/о н/о +16.1 +4.4 46 +15 +15 1025.6 1023.5
16 13.09 З 7 н/о н/о +14.9 +5.7 54 +13 +13 1025.8 1023.7
17 13.09 З 3 н/о н/о +13.9 +5.8 58 +13 +13 1026.3 1024.2
18 13.09 З 4
{13}
н/о н/о +12.4 +6.8 69 +11 +11 1026.7 1024.6 +17.0
19 13.09 З 4 н/о н/о +11.8 +6.6 70 +10 +10 1027.2 1025.1
20 13.09 ЮЗ 3 н/о н/о +11.2 +6.5 73 +9 +9 1027.7 1025.6
21 13.09 ЮЗ 3 н/о н/о +10.7 +6.8 77 +9 +9 1028.1 1026.0
22 13.09 ЮЗ 4 н/о н/о +10.7 +6.5 75 +8 +8 1028.1 1025.9
23 13.09 З 4 н/о н/о +11.0 +6.1 72 +9 +9 1028.0 1025.9
00 14.09 ЮЗ 4
{9}
н/о н/о +11.0 +6.6 74 +9 +9 1028.6 1026.5
01 14.09 ЮЗ 3
{6}
н/о н/о +10.7 +6.6 76 +9 +9 1028.3 1026.2
02 14.09 ЮЗ 2
{5}
н/о н/о +10.4 +6.6 77 +9 +9 1028.2 1026.0
03 14.09 ЮЗ 2 н/о н/о +11.3 +6.2 71 +10 +10 1028.1 1025.9
04 14.09 ЮЗ 3
{5}
н/о н/о +10.7 +6.8 77 +9 +9 1028.2 1026.0
05 14.09 ЮЗ 4
{6}
н/о н/о +11.4 +7.2 75 +9 +9 1028.1 1025.9
06 14.09 ЮЗ 2
{6}
н/о н/о +11.2 +7.8 80 +10 +10 1028.3 1026.1 +10.3
07 14.09 ЮЗ 2 н/о н/о +11.8 +9.0 83 +11 +11 1027.9 1025.8
08 14.09 З 4
{6}
н/о н/о +12.6 +9.5 81 +11 +11 1027.5 1025.4
09 14.09 ЮЗ 8
{12}
н/о н/о +14.9 +9.3 69 +13 +13 1027.1 1025.0
10 14.09 ЮЗ 8
{13}
н/о н/о +15.3 +8.6 64 +13 +13 1026.7 1024.6
11 14.09 ЮЗ 9
{13}
н/о н/о +16.1 +8.0 59 +14 +14 1026.0 1023.9
12 14.09 ЮЗ 7
{13}
н/о н/о +16.4 +8.1 58 +15 +15 1025.5 1023.4
13 14.09 ЮЗ 7
{13}
н/о н/о +15.1 +8.9 66 +13 +13 1024.6 1022.5
14 14.09 ЮЗ 8
{15}
н/о н/о +15.2 +7.6 60 +13 +13 1023.0 1020.9
15 14.09 ЮЗ 6
{14}
н/о н/о +14.3 +8.7 69 +12 +12 1021.7 1019.6
16 14.09 ЮЗ 9
{12}
н/о н/о +14.2 +8.7 69 +12 +12 1020.7 1018.6
17 14.09 ЮЗ 9
{14}
н/о н/о +13.9 +9.4 74 +11 +11 1018.4 1016.3
18 14.09 ЮЗ 8
{16}
н/о н/о +13.2 +8.7 74 +10 +10 1017.9 1015.8 +11.2 +17.0
19 14.09 ЮЗ 10
{14}
н/о н/о +12.8 +11.5 92 +9 +9 1015.6 1013.5
20 14.09 ЮЗ 10
{15}
н/о н/о +13.0 +12.2 95 +10 +10 1014.2 1012.1
21 14.09 ЮЗ 9
{14}
н/о н/о +13.9 +12.1 89 +11 +11 1012.4 1010.3
22 14.09 ЮЗ 9
{14}
н/о н/о +13.6 +12.6 94 +11 +11 1011.0 1008.9
23 14.09 ЮЗ 9
{15}
н/о н/о +13.7 +13.0 96 +11 +11 1009.5 1007.4 3
00 15.09 ЮЗ 7
{15}
н/о н/о +13.6 +13.2 97 +11 +11 1008.2 1006.1 2
01 15.09 ЮЗ 7
{12}
н/о н/о +13.6 +13.1 97 +11 +11 1006.9 1004.8 2
02 15.09 З 4
{11}
н/о н/о +13.5 +12.1 91 +12 +12 1006.9 1004.9 1
03 15.09 З 4
{12}
н/о н/о +11.7 +9.9 89 +9 +9 1006.7 1004.6 1
04 15.09 ЮЗ 6
{9}
н/о н/о +11.3 +9.8 90 +8 +8 1005.9 1003.8
05 15.09 ЮЗ 6
{9}
н/о н/о +11.2 +9.6 90 +8 +8 1005.3 1003.2
06 15.09 ЮЗ 6
{12}
н/о н/о +11.4 +7.9 79 +8 +8 1005.8 1003.8 +11.0 +13.9 13
07 15.09 З 6
{12}
н/о н/о +11.9 +6.7 70 +9 +9 1006.3 1004.2
08 15.09 З 6
{13}
н/о н/о +12.7 +6.1 64 +10 +10 1006.6 1004.5
09 15.09 З 7
{16}
н/о н/о +12.8 +5.1 59 +10 +10 1006.5 1004.4
10 15.09 З 9
{17}
н/о н/о +13.2 +4.5 56 +10 +10 1006.8 1004.7
11 15.09 З 8
{16}
н/о н/о +13.1 +5.6 60 +10 +10 1006.6 1004.6
12 15.09 З 8
{17}
н/о н/о +13.5 +6.1 61 +11 +11 1006.6 1004.5
13 15.09 З 9
{17}
н/о н/о +14.5 +6.9 60 +12 +12 1005.9 1003.9
14 15.09 З 10
{20}
н/о н/о +14.1 +6.6 61 +11 +11 1005.7 1003.6
15 15.09 З 9
{19}
н/о н/о +13.8 +6.5 61 +11 +11 1005.7 1003.7
16 15.09 З 9
{17}
н/о н/о +13.4 +6.3 62 +11 +11 1006.0 1003.9
17 15.09 З 8
{18}
н/о н/о +13.0 +6.0 62 +10 +10 1006.1 1004.1
18 15.09 З 7
{20}
н/о н/о +12.2 +5.7 64 +9 +9 1006.6 1004.5 +11.3 +14.5
19 15.09 З 7
{16}
н/о н/о +12.0 +5.4 64 +9 +9 1006.5 1004.4
20 15.09 З 8
{16}
н/о н/о +11.8 +5.1 63 +9 +9 1006.6 1004.5
21 15.09 З 8
{17}
н/о н/о +11.5 +4.8 63 +8 +8 1007.1 1005.0
22 15.09 З 5
{13}
н/о н/о +11.2 +4.5 63 +9 +9 1008.3 1006.2
23 15.09 З 6
{10}
н/о н/о +10.9 +3.9 62 +8 +8 1009.0 1006.9
00 16.09 З 5
{17}
н/о н/о +10.4 +4.0 65 +8 +8 1009.9 1007.8
01 16.09 З 4
{8}
н/о н/о +10.1 +4.2 67 +8 +8 1010.4 1008.3
02 16.09 З 5
{8}
н/о н/о +10.1 +4.4 68 +7 +7 1010.9 1008.7
03 16.09 З 6
{11}
н/о н/о +9.9 +4.7 70 +7 +7 1011.1 1009.0
04 16.09 З 4
{10}
н/о н/о +9.6 +4.8 72 +7 +7 1011.2 1009.1
05 16.09 З 5
{8}
н/о н/о +9.5 +5.4 76 +6 +6 1011.2 1009.1
06 16.09 З 4
{11}
н/о н/о +9.9 +4.9 71 +7 +7 1011.3 1009.2 +9.4 +12.2
07 16.09 З 5
{8}
н/о н/о +10.7 +4.4 65 +8 +8 1011.9 1009.8
08 16.09 З 5
{9}
н/о н/о +11.9 +5.2 64 +10 +10 1012.2 1010.1
09 16.09 З 5
{9}
н/о н/о +12.9 +4.3 56 +11 +11 1012.2 1010.1
10 16.09 З 5
{10}
н/о н/о +13.8 +3.3 49 +12 +12 1012.3 1010.2
11 16.09 З 6
{11}
н/о н/о +14.3 +2.9 46 +13 +13 1012.3 1010.2
12 16.09 З 6
{12}
н/о н/о +14.6 +3.6 48 +13 +13 1012.2 1010.1
13 16.09 З 5
{9}
н/о н/о +14.6 +4.4 50 +13 +13 1012.0 1009.9
14 16.09 З 5
{8}
н/о н/о +14.3 +3.6 49 +13 +13 1011.5 1009.4
15 16.09 З 4
{10}
н/о н/о +13.3 +7.1 66 +12 +12 1011.4 1009.3
16 16.09 З 6
{10}
н/о н/о +12.9 +6.1 63 +11 +11 1010.9 1008.8
17 16.09 З 6
{13}
н/о н/о +12.0 +6.2 68 +9 +9 1010.4 1008.3
18 16.09 ЮЗ 4
{13}
н/о н/о +10.9 +7.0 77 +9 +9 1010.1 1008.0 +9.9 +15.5
19 16.09 З 4
{6}
н/о н/о +10.2 +6.6 78 +8 +8 1009.6 1007.5
20 16.09 З 3
{7}
н/о н/о +10.2 +6.9 80 +8 +8 1009.4 1007.3
21 16.09 З 4
{6}
н/о н/о +10.4 +7.2 81 +8 +8 1008.5 1006.4
22 16.09 З 5
{7}
н/о н/о +10.3 +5.3 71 +7 +7 1008.1 1006.0
23 16.09 З 4
{9}
н/о н/о +9.6 +4.0 68 +7 +7 1007.9 1005.8
00 17.09 З 4
{9}
н/о н/о +9.0 +3.4 68 +6 +6 1007.9 1005.8
01 17.09 З 4
{6}
н/о н/о +8.5 +2.9 68 +6 +6 1007.6 1005.5
02 17.09 ЮЗ 3
{7}
н/о н/о +7.5 +2.5 71 +5 +5 1007.6 1005.4
03 17.09 З 2
{6}
н/о н/о +7.1 +1.9 69 +5 +5 1007.3 1005.2
04 17.09 З 6
{11}
н/о н/о +7.1 +3.1 76 +3 +3 1006.1 1004.0
05 17.09 СЗ 2
{8}
н/о н/о +6.5 +3.3 80 +4 +4 1005.9 1003.7
06 17.09 З 4
{11}
н/о н/о +7.3 +3.3 76 +4 +4 1005.3 1003.2 +6.4 +10.9
07 17.09 З 6
{11}
н/о н/о +8.2 +2.3 66 +4 +4 1004.9 1002.8
08 17.09 СЗ 6
{13}
н/о н/о +9.4 +1.6 58 +6 +6 1005.4 1003.3
09 17.09 СЗ 6
{10}
н/о н/о +11.1 +0.8 49 +8 +8 1005.6 1003.5
10 17.09 СЗ 7
{14}
н/о н/о +11.8 +0.1 44 +9 +9 1006.3 1004.2
11 17.09 СЗ 6
{12}
н/о н/о +12.8 -0.1 41 +11 +11 1006.9 1004.8
12 17.09 СЗ 8
{14}
н/о н/о +13.0 -0.3 40 +11 +11 1007.3 1005.2
13 17.09 СЗ 7
{11}
н/о н/о +13.3 -0.6 38 +11 +11 1008.1 1006.0
14 17.09 СЗ 6
{11}
н/о н/о +13.7 -0.7 37 +12 +12 1008.7 1006.6
15 17.09 СЗ 7
{12}
н/о н/о +13.6 -1.5 35 +12 +12 1010.0 1007.9
16 17.09 СЗ 7
{13}
н/о н/о +13.2 -1.4 36 +11 +11 1010.8 1008.7
17 17.09 СЗ 7
{12}
н/о н/о +12.7 +0.2 42 +10 +10 1011.6 1009.5
18 17.09 СЗ 4
{13}
н/о н/о +11.8 +1.1 48 +10 +10 1012.4 1010.3 +7.2 +14.1
19 17.09 СЗ 5
{10}
н/о н/о +11.4 +1.6 51 +9 +9 1013.2 1011.1
20 17.09 СЗ 4
{7}
н/о н/о +10.7 +1.9 54 +9 +9 1014.1 1012.0
21 17.09 СЗ 3
{6}
н/о н/о +10.3 +2.4 58 +9 +9 1014.8 1012.7
22 17.09 СЗ 7
{10}
н/о н/о +10.5 +2.2 56 +7 +7 1014.9 1012.8
23 17.09 СЗ 7
{11}
н/о н/о +10.3 +1.6 55 +7 +7 1015.3 1013.2
00 18.09 СЗ 8
{12}
н/о н/о +10.1 +1.5 55 +6 +6 1015.6 1013.5
01 18.09 СЗ 7
{11}
н/о н/о +9.7 +0.9 54 +6 +6 1015.8 1013.6
02 18.09 СЗ 6
{11}
н/о н/о +9.4 +0.8 55 +6 +6 1016.1 1014.0
03 18.09 СЗ 4
{10}
н/о н/о +8.8 +0.9 58 +6 +6 1016.7 1014.6
04 18.09 СЗ 4
{7}
н/о н/о +8.6 +0.9 58 +6 +6 1016.9 1014.8
05 18.09 СЗ 5
{8}
н/о н/о +8.6 +1.1 59 +5 +5 1017.2 1015.1
06 18.09 СЗ 4
{11}
н/о н/о +8.9 +1.0 58 +6 +6 1017.8 1015.6 +8.4 +11.9
07 18.09 СЗ 5
{7}
н/о н/о +10.1 +1.3 54 +7 +7 1018.2 1016.0
08 18.09 СЗ 6
{8}
н/о н/о +11.5 +2.1 52 +9 +9 1018.4 1016.3
09 18.09 СЗ 4
{8}
н/о н/о +13.4 +1.8 45 +12 +12 1018.7 1016.6
10 18.09 СЗ 4
{7}
н/о н/о +14.3 +2.0 43 +13 +13 1018.8 1016.8
11 18.09 СЗ 3
{7}
н/о н/о +15.7 +1.5 38 +15 +15 1019.1 1017.0
12 18.09 З 3
{8}
н/о н/о +16.0 +1.0 36 +16 +16 1019.1 1017.1
13 18.09 СЗ 4
{7}
н/о н/о +16.7 +0.5 33 +16 +16 1019.0 1017.0
14 18.09 СЗ 4
{9}
н/о н/о +16.5 +1.1 35 +16 +16 1019.2 1017.1
15 18.09 СЗ 6
{10}
н/о н/о +16.3 +1.6 37 +15 +15 1019.4 1017.3
16 18.09 СЗ 6
{10}
н/о н/о +15.3 +1.0 38 +14 +14 1019.7 1017.6
17 18.09 СЗ 4
{9}
н/о н/о +14.0 +1.4 42 +13 +13 1020.6 1018.5
18 18.09 СЗ 5
{10}
н/о н/о +12.9 +0.7 43 +11 +11 1021.2 1019.1 +9.0 +17.4
19 18.09 СЗ 2
{7}
н/о н/о +11.4 +1.6 51 +11 +11 1022.0 1019.9
20 18.09 СЗ 4
{6}
н/о н/о +10.6 +2.1 56 +8 +8 1022.4 1020.3
21 18.09 СЗ 5
{7}
н/о н/о +10.1 +1.6 56 +7 +7 1022.8 1020.7
22 18.09 С 4
{8}
н/о н/о +9.6 +1.2 56 +7 +7 1023.1 1021.0
23 18.09 С 4
{7}
н/о н/о +9.4 +1.2 57 +7 +7 1023.7 1021.5
00 19.09 В 2
{8}
н/о н/о +7.4 +1.7 67 +6 +6 1024.4 1022.2
01 19.09 В 1
{3}
н/о н/о +6.8 +1.2 67 +6 +6 1024.6 1022.4
02 19.09 С 1
{2}
н/о н/о +5.5 +2.1 79 +4 +4 1024.9 1022.7
03 19.09 СВ 2
{3}
н/о н/о +3.7 +2.0 89 +1 +1 1025.4 1023.2
04 19.09 СВ 2
{3}
н/о н/о +3.2 +2.2 93 0 0 1025.5 1023.3
05 19.09 СВ 3
{4}
н/о н/о +2.1 +1.6 96 -2 -2 1026.0 1023.8
06 19.09 СВ 3
{4}
н/о н/о +2.8 +2.0 94 -1 -1 1026.2 1024.0 +1.6 +12.9
07 19.09 СВ 2
{4}
н/о н/о +5.2 +3.7 90 +3 +3 1026.7 1024.5
08 19.09 СВ 2
{3}
н/о н/о +8.2 +3.2 71 +6 +6 1027.1 1025.0
09 19.09 В 1
{2}
н/о н/о +12.2 +3.5 55 +12 +12 1027.4 1025.3
10 19.09 Ю 2
{2}
н/о н/о +13.0 +2.3 48 +13 +13 1027.3 1025.2
11 19.09 Ю 5
{5}
н/о н/о +12.3 +3.5 55 +10 +10 1027.3 1025.2
12 19.09 Ю 4
{6}
н/о н/о +13.0 +5.2 59 +11 +11 1026.9 1024.8
13 19.09 Ю 4
{6}
н/о н/о +13.5 +4.9 56 +12 +12 1026.3 1024.2
14 19.09 Ю 5
{6}
н/о н/о +12.9 +4.7 57 +11 +11 1025.7 1023.6
15 19.09 ЮЗ 4
{6}
н/о н/о +13.0 +4.7 57 +11 +11 1025.6 1023.4
16 19.09 З 1
{4}
н/о н/о +13.4 +4.4 54 +14 +14 1025.3 1023.2
17 19.09 СЗ 4
{7}
н/о н/о +13.3 +1.1 43 +12 +12 1025.4 1023.3
18 19.09 СЗ 4
{7}
н/о н/о +12.6 +0.2 43 +11 +11 1026.0 1023.8 +2.8 +14.1
19 19.09 СЗ 3
{6}
н/о н/о +11.9 +1.6 49 +11 +11 1025.9 1023.8
20 19.09 З 4
{7}
н/о н/о +11.1 +2.4 55 +9 +9 1025.6 1023.5
21 19.09 З 3
{7}
н/о н/о +10.3 +3.3 62 +8 +8 1025.8 1023.6
22 19.09 З 3
{5}
н/о н/о +9.7 +4.4 70 +8 +8 1025.6 1023.5
23 19.09 З 3
{5}
н/о н/о +9.8 +5.2 73 +8 +8 1025.3 1023.1
00 20.09 СЗ 1
{7}
н/о н/о +9.3 +5.5 77 +9 +9 1025.1 1023.0
01 20.09 ЮЗ 4
{5}
н/о н/о +9.4 +7.5 88 +6 +6 1024.7 1022.6
02 20.09 ЮЗ 3
{5}
н/о н/о +9.8 +8.3 90 +7 +7 1024.0 1021.9
03 20.09 З 2
{5}
н/о н/о +9.2 +8.5 95 +7 +7 1023.7 1021.5
04 20.09 В 1
{3}
н/о н/о +7.3 +7.2 99 +6 +6 1023.0 1020.8
05 20.09 Ю 1
{3}
н/о н/о +7.4 +7.1 98 +6 +6 1022.5 1020.3
06 20.09 ЮЗ 2
{5}
н/о н/о +11.7 +10.2 91 +11 +11 1022.2 1020.0 +6.5 +12.6
07 20.09 ЮЗ 5
{7}
н/о н/о +12.3 +10.1 86 +10 +10 1021.9 1019.7
08 20.09 Ю 4
{7}
н/о н/о +12.9 +10.3 84 +11 +11 1022.3 1020.2
09 20.09 Ю 5
{7}
н/о н/о +14.4 +10.6 78 +13 +13 1022.3 1020.2
10 20.09 ЮЗ 4
{6}
н/о н/о +17.8 +10.0 60 +18 +18 1021.3 1019.3
11 20.09 З 5
{8}
н/о н/о +19.0 +10.1 56 +19 +19 1021.1 1019.1

 

Местоположение метеостанции Кьевик (Норвегия): широта 58.20 долгота 8.08 высота над уровнем моря 12 м.

В архиве по умолчанию представлена погода в Кьевике за последнюю неделю. Архивные данные за месяц целиком и за предыдущие месяцы, начиная с января 2011 года, Вы можете получить, выбрав интересующий диапазон дат из раскрывающегося списка и нажав кнопку "Ввод!".


*Определитесь, кто Вы:
робот инопланетянин человек

Внимание! Время в таблицах - всемирное. Для получения местного времени необходимо прибавить поправку, которая равна 1 ч.

Смотрите также архив погоды в соседних городах и на ближайших метеорологических станциях:

Погода на Маяке Oksoy (Норвегия) (15 км)
Погода в Ландвике (Норвегия) (30 км)
Погода в Мандале (Норвегия) (42 км)
Погода в Консмо-Хойланде (Норвегия) (42 км)
Погода на Маяке Torungen (Норвегия) (48 км)
Погода в Хюннеклейве (Норвегия) (49 км)
Погода в Бигландсфьорде (Норвегия) (57 км)
Погода в Нелауге (Норвегия) (59 км)
Погода на Маяке Lindesnes (Норвегия) (65 км)
Погода на Маяке Lyngor (Норвегия) (79 км)

Пояснения к столбцам:

Ветер - указаны скорость ветра в м/с - средняя за 10 мин, порывы в срок и между сроками (в фигурных скобках) и направление, откуда дует ветер: С - северный, СВ - северо-восточный, В - восточный, ЮВ - юго-восточный, Ю - южный, ЮЗ - юго-западный, З - западный, СЗ - северо-западный.
Видимость - горизонтальная дальность видимости в метрах или километрах. При видимости от 1 до 10 км при отсутствии осадков обычно наблюдается дымка, при ухудшении видимости до 1 км и менее - туман. В сухую погоду видимость может ухудшаться дымом, пылью или мглою.
Явления - указаны атмосферные явления, наблюдавшиеся в срок или в последний час перед сроком; фигурными скобками обозначены явления, наблюдавшиеся между сроками (за 1-3 часа до срока); квадратными скобками обозначены град или гололедные отложения с указанием их диаметра в мм.
Облачность - указаны через наклонную черту общая и нижняя облачность в баллах и высота нижней границы облаков в метрах; квадратными скобками обозначены формы облаков: Ci - перистые, Cs - перисто-слоистые, Cc - перисто-кучевые, Ac - высококучевые, As - высокослоистые, Sc - слоисто-кучевые, Ns - слоисто-дождевые, Cu - кучевые, Cb - кучево-дождевые. Подробнее классификацию облаков см. в Атласе облаков (PDF).
T - Температура воздуха - температура, измеренная на высоте 2 м над землей.
Td - Температура точки росы - температура, при понижении до которой содержащийся в воздухе водяной пар достигнет насыщения.
f - Относительная влажность воздуха - влажноcть воздуха, измеренная на высоте 2 м над землей.
Te - Эффективная температура - температура, которую ощущает одетый по сезону человек в тени. Характеристика душности погоды. При расчете учитывается влияние влажности воздуха и скорости ветра на теплоощущения человека.
Tes - Эффективная температура на солнце - температура, которую ощущает человек, с поправкой на солнечный нагрев. Характеристика знойности погоды. Зависит от высоты солнца над горизонтом, облачности и скорости ветра. Ночью, в пасмурную погоду, а также при ветре 12 м/с и более поправка равна нулю.
P - Атмосферное давление - приведенное к уровню моря атмосферное давление.
Po - Атмосферное давление - измеренное на уровне метеостанции атмосферное давление.
Tmin - Минимальная температура - минимум температуры воздуха на высоте 2 м над землей.
Tmax - Максимальная температура - максимум температуры воздуха на высоте 2 м над землей.
R - Количество осадков - Количество выпавших осадков за период времени, мм. При наведении курсора мыши на число - период времени, за который выпало указанное количество осадков.
R24 - Количество осадков - Количество выпавших осадков за 24 часа, мм.
S - Снежный покров - Высота снежного покрова, см. При наведении курсора мыши на число - состояние снежного покрова и степень покрытия местности в баллах.